This is the latest recevied weather packets stored in our database for station/object UR7D-12. If no packets are shown the sender has not sent any weather packets the latest 10 day(s).
| Time | Temp. | Humidity | Pressure | Rain* | Wind** | Luminosity | Snow |
|---|---|---|---|---|---|---|---|
| 1777643695 | 15° C | 37% | 997.5 hPa | 0 mm | - | - | - |
| 1777643396 | 15° C | 37% | 997.5 hPa | 0 mm | - | - | - |
| 1777643098 | 15° C | 38% | 997.6 hPa | 0 mm | - | - | - |
| 1777642796 | 14.44° C | 38% | 997.7 hPa | 0 mm | - | - | - |
| 1777641894 | 14.44° C | 39% | 997.7 hPa | 0 mm | - | - | - |
| 1777641294 | 14.44° C | 37% | 997.8 hPa | 0 mm | - | - | - |
| 1777640395 | 14.44° C | 36% | 997.9 hPa | 0 mm | - | - | - |
| 1777639793 | 15° C | 39% | 998 hPa | 0 mm | - | - | - |
| 1777639494 | 14.44° C | 39% | 997.8 hPa | 0 mm | - | - | - |
| 1777637691 | 13.33° C | 37% | 998.2 hPa | 0 mm | - | - | - |
| 1777637092 | 13.89° C | 39% | 998.3 hPa | 0 mm | - | - | - |
| 1777636491 | 14.44° C | 37% | 998.5 hPa | 0 mm | - | - | - |
| 1777636190 | 14.44° C | 36% | 998.5 hPa | 0 mm | - | - | - |
| 1777635589 | 13.89° C | 38% | 998.6 hPa | 0 mm | - | - | - |
| 1777634990 | 13.33° C | 37% | 998.7 hPa | 0 mm | - | - | - |
| 1777634688 | 13.33° C | 36% | 998.8 hPa | 0 mm | - | - | - |
| 1777633789 | 12.78° C | 37% | 999.1 hPa | 0 mm | - | - | - |
| 1777633489 | 12.78° C | 37% | 999 hPa | 0 mm | - | - | - |
| 1777633187 | 12.78° C | 38% | 999.1 hPa | 0 mm | - | - | - |
| 1777632888 | 12.78° C | 37% | 999.1 hPa | 0 mm | - | - | - |
| 1777632586 | 12.78° C | 37% | 999.2 hPa | 0 mm | - | - | - |
| 1777631987 | 12.78° C | 38% | 999.2 hPa | 0 mm | - | - | - |
| 1777631387 | 13.33° C | 36% | 999.2 hPa | 0 mm | - | - | - |
| 1777630786 | 12.78° C | 38% | 999.3 hPa | 0 mm | - | - | - |
| 1777630186 | 12.78° C | 39% | 999.3 hPa | 0 mm | - | - | - |
* Rain latest hour (hover to see other rain measurements)
** Current wind speed in m/s (hover to see current wind gust speed)